Regional Weather Roundup
Issued by NWS

Home | Current Version | Previous Version | Text Only | Print | Product List | Glossary On
Versions: 1 2 3 4 5 6 7 8 9 10 11 12 13 14 15 16 17 18 19 20 21 22 23 24 25 26 27 28 29 30 31 32 33 34 35 36 37 38 39 40 41 42 43 44 45 46 47 48 49 50
000
ASUS43 KFSD 221410
RWRSD

WEATHER ROUNDUP FOR SOUTH DAKOTA
NATIONAL WEATHER SERVICE SIOUX FALLS SD
900 AM CDT WED OCT 22 2014

NOTE: "FAIR" INDICATES FEW OR NO CLOUDS BELOW 12,000 FEET WITH NO
SIGNIFICANT WEATHER AND/OR OBSTRUCTIONS TO VISIBILITY.


SDZ001>005-009-010-012>017-221500-
NORTHWEST AND NORTH CENTRAL SOUTH DAKOTA

CITY           SKY/WX    TMP DP  RH WIND       PRES   REMARKS
BUFFALO          N/A     45  37  73 W17       29.87R
FAITH            N/A     51  42  71 W14       29.92R
MOBRIDGE       CLOUDY    58  49  72 W14       29.84R
$$

SDZ012>016-024>037-041>051-057-063-072>074-221500-
SOUTHWEST AND SOUTH CENTRAL SOUTH DAKOTA

CITY           SKY/WX    TMP DP  RH WIND       PRES   REMARKS
RAPID CTY ARPT CLOUDY    52  35  52 N21G29    29.95R
PIERRE         CLOUDY    60  45  57 NW23      29.84R
CUSTER         MOCLDY    45  31  58 W6        30.00R
ELLSWORTH AFB  CLOUDY    53  36  53 N22G30    29.95R
PHILIP         CLOUDY    52  44  74 NW10      29.92R
PINE RIDGE     CLOUDY    53  48  83 CALM      29.98R
SPEARFISH      FAIR      46  34  61 W12       30.01S
WINNER         PTSUNNY   64  48  56 W13       29.92R
$$

SDZ004>011-016>023-039-040-221500-
NORTHEAST SOUTH DAKOTA

CITY           SKY/WX    TMP DP  RH WIND       PRES   REMARKS
ABERDEEN       MOCLDY    56  44  64 S16       29.85R
WATERTOWN      SUNNY     53  44  71 S20G31    29.92R
SISSETON         N/A     52  44  74 S12       29.89R
$$

SDZ017-020-022-023-036>040-048>070-221500-
SOUTHEAST SOUTH DAKOTA

CITY           SKY/WX    TMP DP  RH WIND       PRES   REMARKS
SIOUX FALLS    MOSUNNY   54  44  69 S16       29.99S
HURON          PTCLDY    55  44  66 S16G25    29.87S
CHAMBERLAIN    CLOUDY    60  52  74 S13       29.85R
MITCHELL       SUNNY     56  45  66 S20       29.91R
YANKTON        SUNNY     55  45  67 S13       29.97S
$$

ABBREVIATIONS USED IN REMARKS
   TC - TEMPERATURE IN CELSIUS
  WCI - WIND CHILL INDEX
   HX - HEAT INDEX
  VSB - VISIBILITY




USA.gov is the U.S. government's official web portal to all federal, state and local government web resources and services.